Flint, MI

1:09 AM EST on January 21, 2018 (GMT -0500)
Bishop International

Weather History for KFNT - March, 2014

Change the Weather History Date:

Wednesday, March 19, 2014

  Actual Average Record
Temperature  
Mean Temperature 40 °F 35 °F  
Max Temperature 46 °F 45 °F 80 °F (2012)
Min Temperature 34 °F 26 °F -1 °F (1923)
Degree Days  
Heating Degree Days 25 30  
Month to date heating degree days 801 631  
Since 1 July heating degree days 6322 5719  
Cooling Degree Days 0 0  
Month to date cooling degree days 0 0  
Year to date cooling degree days 0 0  
Moisture  
Dew Point 36 °F    
Average Humidity 78    
Maximum Humidity 92    
Minimum Humidity 64    
Precipitation  
Precipitation 0.13 in 0.06 in 2.33 in (1948)
Month to date precipitation 0.79 1.07  
Year to date precipitation 4.80 4.18  
Snow  
Snow 0.00 in 0.20 in 1.70 in (1957)
Month to date snowfall 8.6 4.7  
Since 1 July snowfall 81.8 43.3  
Snow Depth 1.00 in    
Sea Level Pressure  
Sea Level Pressure 29.68 in    
Wind  
Wind Speed 13 mph (SSW)    
Max Wind Speed 28 mph    
Max Gust Speed 35 mph    
Visibility 6 miles    
Events Rain    
T = Trace of Precipitation, MM = Missing Value Source: NWS Daily Summary

Daily Weather History Graph

Daily Weather History Graph

Search for Another Location

Airport or City:

Trip Planner

Search our weather history database for the weather conditions in past years. The results will help you decide how hot, cold, wet, or windy it might be!

Date:

Astronomy

Mar. 19, 2014 Rise Set
Actual Time 7:39 AM EDT 7:46 PM EDT
Civil Twilight 7:11 AM EDT 8:14 PM EDT
Nautical Twilight 6:38 AM EDT 8:47 PM EDT
Astronomical Twilight 6:04 AM EDT 9:21 PM EDT
Moon 11:09 PM EDT (3/19) 9:00 AM EDT (3/19)
Length of Visible Light 13h 02m
Length of Day
12h 06m
Waning Gibbous, 91% of the Moon is Illuminated
Mar 19
Waning Gibbous
Mar 23
Last Quarter
Mar 30
New
Apr 7
First Quarter
Apr 15
Full

Hourly Weather History & Observations

Time (EDT) Temp. Windchill Dew Point Humidity Pressure Visibility Wind Dir Wind Speed Gust Speed Precip Events Conditions
12:53 AM 36.0 °F 28.5 °F 27.0 °F 70% 29.90 in 10.0 mi ESE 10.4 mph - N/A   Clear
1:53 AM 36.0 °F 29.0 °F 27.0 °F 70% 29.88 in 10.0 mi ESE 9.2 mph - N/A   Clear
2:53 AM 37.9 °F 30.5 °F 28.0 °F 68% 29.84 in 10.0 mi SE 11.5 mph - N/A   Overcast
3:53 AM 39.0 °F 31.0 °F 28.9 °F 67% 29.80 in 10.0 mi SSE 13.8 mph - N/A   Overcast
4:53 AM 39.9 °F 32.9 °F 30.0 °F 68% 29.76 in 10.0 mi SE 11.5 mph - N/A   Overcast
5:53 AM 39.0 °F 31.4 °F 32.0 °F 76% 29.73 in 9.0 mi SE 12.7 mph - 0.00 in Rain Light Rain
6:14 AM 39.0 °F 31.0 °F 32.0 °F 76% 29.71 in 10.0 mi SSE 13.8 mph - 0.00 in   Overcast
6:53 AM 39.0 °F 31.0 °F 32.0 °F 76% 29.72 in 9.0 mi SSE 13.8 mph - 0.00 in Rain Light Rain
7:53 AM 39.9 °F 32.1 °F 34.0 °F 79% 29.71 in 7.0 mi South 13.8 mph - 0.01 in Rain Light Rain
8:53 AM 39.9 °F 33.4 °F 36.0 °F 86% 29.69 in 4.0 mi South 10.4 mph - 0.01 in Rain Light Rain
9:53 AM 41.0 °F 35.2 °F 37.0 °F 86% 29.68 in 3.0 mi South 9.2 mph - 0.02 in Rain Light Rain
10:37 AM 42.1 °F 36.1 °F 37.9 °F 85% 29.64 in 2.5 mi South 10.4 mph - 0.01 in Rain Light Rain
10:53 AM 42.1 °F 36.1 °F 39.0 °F 89% 29.66 in 1.5 mi South 10.4 mph - 0.02 in Rain Light Rain
11:33 AM 43.0 °F 36.8 °F 39.9 °F 89% 29.63 in 1.5 mi South 11.5 mph - 0.02 in Rain Light Rain
11:42 AM 43.0 °F 36.4 °F 39.9 °F 89% 29.63 in 2.5 mi South 12.7 mph 19.6 mph 0.03 in Rain Light Rain
11:53 AM 44.1 °F 38.6 °F 39.9 °F 85% 29.65 in 2.5 mi SSW 10.4 mph - 0.04 in Rain Light Rain
12:00 PM 44.1 °F 38.1 °F 39.9 °F 85% 29.62 in 5.0 mi SSW 11.5 mph - 0.00 in Rain Light Rain
12:18 PM 44.1 °F 39.0 °F 39.9 °F 85% 29.61 in 1.5 mi SSW 9.2 mph - 0.00 in   Overcast
12:25 PM 44.1 °F 39.0 °F 41.0 °F 89% 29.61 in 1.5 mi South 9.2 mph - 0.00 in   Overcast
12:34 PM 43.0 °F 38.2 °F 39.9 °F 89% 29.61 in 1.5 mi South 8.1 mph - 0.00 in Rain Light Rain
12:45 PM 44.1 °F 39.0 °F 41.0 °F 89% 29.60 in 1.5 mi South 9.2 mph - 0.00 in   Overcast
12:51 PM 44.6 °F 39.7 °F 41.0 °F 87% 29.60 in 6.0 mi South 9.2 mph - 0.00 in   Overcast
12:53 PM 44.1 °F 39.0 °F 41.0 °F 89% 29.62 in 6.0 mi South 9.2 mph - 0.00 in   Overcast
1:12 PM 45.0 °F 39.7 °F 41.0 °F 86% 29.59 in 6.0 mi SSW 10.4 mph - N/A   Overcast
1:22 PM 46.0 °F 40.6 °F 41.0 °F 83% 29.59 in 6.0 mi SSW 11.5 mph - N/A   Haze
1:53 PM 46.0 °F 39.6 °F 41.0 °F 83% 29.61 in 8.0 mi SSW 15.0 mph 23.0 mph N/A   Overcast
2:22 PM 45.0 °F 40.6 °F 41.0 °F 86% 29.58 in 7.0 mi SSW 8.1 mph - 0.00 in Rain Light Rain
2:49 PM 44.6 °F 40.2 °F 41.0 °F 87% 29.58 in 4.0 mi WSW 8.1 mph - 0.00 in Rain Light Rain
2:53 PM 44.1 °F 40.8 °F 41.0 °F 89% 29.60 in 4.0 mi WSW 5.8 mph - 0.00 in Rain Light Rain
3:53 PM 45.0 °F 40.6 °F 42.1 °F 90% 29.59 in 3.0 mi SW 8.1 mph - 0.00 in Rain Light Rain
4:32 PM 45.0 °F 40.1 °F 42.1 °F 90% 29.57 in 2.0 mi SW 9.2 mph - 0.01 in Rain Light Rain
4:53 PM 45.0 °F 40.1 °F 41.0 °F 86% 29.59 in 3.0 mi SW 9.2 mph - 0.02 in Rain Light Rain
5:53 PM 44.1 °F 38.6 °F 39.9 °F 85% 29.60 in 3.0 mi SW 10.4 mph - 0.01 in Rain Light Rain
6:03 PM 43.0 °F 37.2 °F 39.9 °F 89% 29.59 in 2.0 mi WSW 10.4 mph - 0.00 in   Overcast
6:53 PM 42.1 °F 34.5 °F 39.0 °F 89% 29.63 in 5.0 mi West 15.0 mph 26.5 mph 0.00 in Rain Light Rain
7:04 PM 42.1 °F 33.6 °F 37.9 °F 85% 29.62 in 10.0 mi West 18.4 mph - N/A   Overcast
7:34 PM 39.0 °F 29.0 °F 36.0 °F 89% 29.65 in 9.0 mi West 20.7 mph 27.6 mph N/A   Overcast
7:53 PM 37.0 °F 26.2 °F 33.1 °F 86% 29.68 in 9.0 mi West 21.9 mph 31.1 mph N/A   Overcast
8:53 PM 36.0 °F 25.3 °F 32.0 °F 86% 29.73 in 8.0 mi West 19.6 mph 25.3 mph N/A   Overcast
9:39 PM 35.1 °F 24.1 °F 30.0 °F 82% 29.73 in 9.0 mi West 19.6 mph 29.9 mph N/A   Overcast
9:53 PM 34.0 °F 22.7 °F 30.0 °F 85% 29.76 in 8.0 mi West 19.6 mph 29.9 mph N/A   Overcast
10:39 PM 34.0 °F 24.2 °F 28.9 °F 82% 29.76 in 9.0 mi West 15.0 mph 25.3 mph N/A   Overcast
10:53 PM 35.1 °F 24.8 °F 28.9 °F 78% 29.78 in 9.0 mi West 17.3 mph - N/A   Overcast
11:44 PM 35.1 °F 24.5 °F 30.0 °F 82% 29.77 in 6.0 mi West 18.4 mph 27.6 mph N/A   Haze
11:53 PM 35.1 °F 24.8 °F 30.0 °F 82% 29.79 in 6.0 mi West 17.3 mph 28.8 mph N/A   Haze